Flag for U.S.A. Weather past 2 weeks in Warminster Township, Pennsylvania, U.S.A.

Now
34 °F

Overcast.


Feels Like: 28 °F
Forecast: 19 / 34 °F
Wind: 7 mph from West

Location: Doylestown Airport

Current Time: Feb 1, 2015 at 1:35:07 PM

Latest Report: Feb 1, 2015 at 12:54 PM


Visibility: 10 mi

Pressure: 30.19 "Hg

Humidity: 59%

Dew point: 21 °F

Location of Warminster TownshipLocation

Historic Weather in Warminster Township — Graph

°F

Warminster Township temperature yesterday

Maximum temperature yesterday: 25 °F (at 3:54 PM)
Minimum temperature yesterday: 9 °F (at 6:54 AM)
Average temperature yesterday: 17 °F

Past Weeks' High & Low Weather Summary

 TemperatureHumidityPressure
High41 °F (Jan 19, 11:54 AM)100% (Jan 18, 9:54 AM)30.39 "Hg (Jan 18, 9:54 AM)
Low9 °F (Jan 31, 6:54 AM)27% (Jan 17, 2:54 PM)29.31 "Hg (Jan 24, 3:03 PM)
Average27 °F73%30.00 "Hg
* Reported Jan 17 11:54 AM — Feb 1 11:54 AM, Warminster Township, Weather by CustomWeather, © 2014

Note: Actual official high and low records may vary slightly from our data, if they occured in-between our weather recording intervals... More about our weather records

Advertising

Warminster Township weather history for previous 24 hours

 ConditionsComfort  
Time TempWeatherWind HumidityBarometerVisibility
11:54 AM
Feb 1
33 °FPartly sunny.6 mph56%30.22 "Hg10 mi
10:54 AM33 °FScattered clouds.5 mph56%30.24 "Hg10 mi
9:54 AM30 °FOvercast.5 mph59%30.25 "Hg10 mi
8:54 AM26 °FOvercast.No wind63%30.25 "Hg10 mi
7:54 AM24 °FOvercast.5 mph65%30.25 "Hg10 mi
6:54 AM23 °FOvercast.5 mph65%30.24 "Hg10 mi
5:54 AM22 °FOvercast.3 mph68%30.24 "Hg10 mi
4:54 AM22 °FOvercast.6 mph66%30.24 "Hg10 mi
3:54 AM21 °FOvercast.5 mph65%30.23 "Hg10 mi
2:54 AM20 °FOvercast.5 mph65%30.24 "Hg10 mi
1:54 AM19 °FPassing clouds.7 mph62%30.24 "Hg10 mi
12:54 AM16 °FClear.5 mph67%30.24 "Hg10 mi
11:54 PM
Jan 31
16 °FClear.3 mph67%30.24 "Hg10 mi
10:54 PM17 °FClear.3 mph64%30.24 "Hg10 mi
9:54 PM18 °FClear.3 mph62%30.24 "Hg10 mi
8:54 PM19 °FClear.3 mph57%30.24 "Hg10 mi
7:54 PM20 °FClear.3 mph55%30.25 "Hg10 mi
6:54 PM21 °FClear.6 mph52%30.23 "Hg10 mi
5:54 PM22 °FClear.6 mph50%30.21 "Hg10 mi
4:54 PM24 °FSunny.14 mph46%30.19 "Hg10 mi
3:54 PM25 °FSunny.14 mph42%30.19 "Hg10 mi
2:54 PM24 °FSunny.16 mph44%30.18 "Hg10 mi
1:54 PM23 °FSunny.16 mph44%30.18 "Hg10 mi
Weather by CustomWeather, © 2014

See weather overviewHow to use our weather pages